Daytona Beach, FL

4:47 AM EDT on March 24, 2017 (GMT -0400)
Daytona Beach International

Weather History for KDAB - October, 2013

Change the Weather History Date:

Friday, October 18, 2013

  Actual Average Record
Temperature  
Mean Temperature 78 °F 74 °F  
Max Temperature 86 °F 82 °F 92 °F (2007)
Min Temperature 69 °F 65 °F 45 °F (1977)
Degree Days  
Heating Degree Days 0 0  
Month to date heating degree days 0 0  
Since 1 July heating degree days 0 0  
Cooling Degree Days 13 9  
Month to date cooling degree days 202 192  
Year to date cooling degree days 2860 2702  
Growing Degree Days 26 (Base 50)    
Moisture  
Dew Point 70 °F    
Average Humidity 80    
Maximum Humidity 100    
Minimum Humidity 59    
Precipitation  
Precipitation 0.00 in 0.12 in 5.26 in (1950)
Month to date precipitation 1.99 2.84  
Year to date precipitation 42.98 42.93  
Sea Level Pressure  
Sea Level Pressure 29.97 in    
Wind  
Wind Speed 3 mph (SE)    
Max Wind Speed 12 mph    
Max Gust Speed 15 mph    
Visibility 9 miles    
Events      
T = Trace of Precipitation, MM = Missing Value Source: NWS Daily Summary

Daily Weather History Graph

Daily Weather History Graph

Search for Another Location

Airport or City:

Trip Planner

Search our weather history database for the weather conditions in past years. The results will help you decide how hot, cold, wet, or windy it might be!

Date:

Astronomy

Oct. 18, 2013 Rise Set
Actual Time 7:27 AM EDT 6:50 PM EDT
Civil Twilight 7:03 AM EDT 7:14 PM EDT
Nautical Twilight 6:35 AM EDT 7:42 PM EDT
Astronomical Twilight 6:08 AM EDT 8:09 PM EDT
Moon 6:41 PM EDT (10/18) 7:01 AM EDT (10/18)
Length of Visible Light 12h 11m
Length of Day
11h 23m
Full, 100% of the Moon is Illuminated
Oct 18
Full
Oct 18
Full
Oct 26
Last Quarter
Nov 3
New
Nov 10
First Quarter

Hourly Weather History & Observations

Time (EDT) Temp. Heat Index Dew Point Humidity Pressure Visibility Wind Dir Wind Speed Gust Speed Precip Events Conditions
12:53 AM 71.1 °F - 70.0 °F 96% 29.94 in 9.0 mi Calm Calm - N/A   Clear
1:53 AM 71.1 °F - 69.1 °F 93% 29.94 in 8.0 mi Calm Calm - N/A   Clear
2:53 AM 71.1 °F - 69.1 °F 93% 29.94 in 7.0 mi Calm Calm - N/A   Clear
3:53 AM 70.0 °F - 68.0 °F 93% 29.94 in 9.0 mi Calm Calm - N/A   Clear
4:53 AM 70.0 °F - 68.0 °F 93% 29.94 in 9.0 mi Calm Calm - N/A   Clear
5:53 AM 69.1 °F - 68.0 °F 96% 29.96 in 7.0 mi Calm Calm - N/A   Clear
6:53 AM 69.1 °F - 66.9 °F 93% 29.97 in 7.0 mi Calm Calm - N/A   Partly Cloudy
7:53 AM 70.0 °F - 69.1 °F 97% 29.99 in 8.0 mi Calm Calm - N/A   Partly Cloudy
8:53 AM 73.0 °F - 71.1 °F 93% 30.01 in 10.0 mi SW 3.5 mph - N/A   Partly Cloudy
9:53 AM 78.1 °F - 72.0 °F 81% 30.01 in 10.0 mi WSW 4.6 mph - N/A   Clear
10:53 AM 80.1 °F 83.8 °F 72.0 °F 76% 30.01 in 10.0 mi SW 4.6 mph - N/A   Partly Cloudy
11:53 AM 82.9 °F 86.5 °F 69.1 °F 63% 30.00 in 10.0 mi SSW 4.6 mph - N/A   Partly Cloudy
12:53 PM 84.0 °F 87.0 °F 68.0 °F 58% 29.99 in 10.0 mi Calm Calm - N/A   Scattered Clouds
1:53 PM 84.0 °F 89.0 °F 71.1 °F 65% 29.96 in 10.0 mi East 8.1 mph - N/A   Scattered Clouds
2:53 PM 84.9 °F 89.4 °F 70.0 °F 61% 29.94 in 10.0 mi East 6.9 mph - N/A   Scattered Clouds
3:53 PM 84.9 °F 88.2 °F 68.0 °F 57% 29.94 in 10.0 mi East 10.4 mph - N/A   Scattered Clouds
4:53 PM 82.9 °F 87.5 °F 71.1 °F 67% 29.93 in 10.0 mi East 8.1 mph - N/A   Scattered Clouds
5:53 PM 81.0 °F 84.4 °F 70.0 °F 69% 29.94 in 10.0 mi ESE 8.1 mph - N/A   Scattered Clouds
6:53 PM 79.0 °F - 71.1 °F 77% 29.95 in 10.0 mi ESE 6.9 mph - N/A   Scattered Clouds
7:53 PM 78.1 °F - 71.1 °F 79% 29.96 in 10.0 mi Calm Calm - N/A   Mostly Cloudy
8:53 PM 78.1 °F - 71.1 °F 79% 29.97 in 10.0 mi Calm Calm - N/A   Partly Cloudy
9:53 PM 77.0 °F - 72.0 °F 84% 29.98 in 10.0 mi Calm Calm - N/A   Partly Cloudy
10:53 PM 75.0 °F - 71.1 °F 87% 29.98 in 10.0 mi Calm Calm - N/A   Partly Cloudy
11:53 PM 73.0 °F - 71.1 °F 93% 29.98 in 10.0 mi Calm Calm - N/A   Partly Cloudy